Location: Betra
(48.4113°N, 8.6634°E)
Time: 21:07:09
(UTC+00:00)

IRAS Rocket - Pass Details

Date: 23 May 2024
Orbit: 846 x 877 km, 100.1° (Epoch: 16 June)

Event Time Altitude Azimuth Distance (km) Brightness Sun altitude
Rises 02:14:59 0° 17° (NNE) 3,438 8.7 -10.9°
Reaches altitude 10° 02:17:22 10° 19° (NNE) 2,493 7.9 -10.6°
Maximum altitude 02:22:54 79° 106° (ESE) 870 4.3 -10.0°
Drops below altitude 10° 02:28:22 10° 194° (SSW) 2,464 6.1 -9.4°
Enters shadow 02:28:57 - 194° (SSW) 2,690 6.3 -9.3°
